This demonstration page uses our WeatherBlox Daily Observations layout. Learn more.

Left ArrowRight Arrow

Hourly Observations for May 5, 2018

Temp ( °F °C ) Dew Point ( °F °C ) Humidity (%) Winds ( mph kmh ) Pressure ( in mb ) Visibility ( mi km ) Precip ( " mm )
12:56 am 00:56 Clear 57 13.9 41 5 55 55 SW 6 9 30.09 1019 10 16 0.00 0.00
1:56 am 01:56 Clear 57 13.9 40 4.4 53 53 SW 8 13 30.08 1019 10 16 0.00 0.00
2:56 am 02:56 Clear 57 13.9 39 3.9 51 51 WSW 6 9 30.07 1018 10 16 0.00 0.00
3:56 am 03:56 Clear 54 12.2 39 3.9 57 57 WSW 6 9 30.07 1018 10 16 0.00 0.00
4:56 am 04:56 Clear 53 11.7 40 4.4 61 61 WSW 7 11 30.07 1018 10 16 0.00 0.00
5:56 am 05:56 Clear 51 10.6 40 4.4 66 66 WSW 7 11 30.07 1018 10 16 0.00 0.00
6:56 am 06:56 Sunny 52 11.1 40 4.4 64 64 WSW 7 11 30.07 1018 10 16 0.00 0.00
7:56 am 07:56 Sunny 55 12.8 41 5 59 59 WSW 8 13 30.08 1019 10 16 0.00 0.00
8:56 am 08:56 Sunny 65 18.3 41 5 42 42 W 9 15 30.07 1018 10 16 0.00 0.00
9:56 am 09:56 Sunny 72 22.2 42 5.6 34 34 W 9 15 30.07 1018 10 16 0.00 0.00
10:56 am 10:56 Sunny 74 23.3 43 6.1 33 33 W 12 19 30.07 1018 10 16 0.00 0.00
11:56 am 11:56 Sunny 79 26.1 41 5 26 26 W 12 19 30.06 1018 10 16 0.00 0.00
12:56 pm 12:56 Sunny 81 27.2 38 3.3 21 21 W 10 17 30.03 1017 10 16 0.00 0.00
1:56 pm 13:56 Sunny 81 27.2 38 3.3 21 21 SW 14 22 30.01 1016 10 16 0.00 0.00
2:56 pm 14:56 Sunny 83 28.3 37 2.8 19 19 W 14 22 29.99 1016 10 16 0.00 0.00
3:56 pm 15:56 Sunny 83 28.3 36 2.2 19 19 WSW 10 17 29.97 1015 10 16 0.00 0.00
4:56 pm 16:56 Mostly Sunny 82 27.8 38 3.3 21 21 VRB 5 7 29.96 1015 10 16 0.00 0.00
5:35 pm 17:35 Cloudy with Light Rain 75 24 48 9 39 39 SE 10 17 29.88 1012 10 16 0.00 0.00
5:43 pm 17:43 Cloudy with Light Rain 77 25 46 8 34 34 E 12 19 29.88 1012 10 16 0.00 0.00
5:56 pm 17:56 Cloudy 77 25 46 7.8 33 33 ESE 7 11 29.98 1015 10 16 0.04 1.02
6:56 pm 18:56 Cloudy 78 25.6 45 7.2 31 31 S 3 6 29.98 1015 10 16 0.00 0.00
7:56 pm 19:56 Cloudy 74 23.3 51 10.6 45 45 S 5 7 29.98 1015 10 16 0.00 0.00
8:56 pm 20:56 Cloudy 73 22.8 46 7.8 38 38 Calm 29.98 1015 10 16 0.00 0.00
9:21 pm 21:21 Clear 66 19 50 10 56 56 NNE 13 20 29.97 1015 10 16 0.00 0.00
9:56 pm 21:56 Clear 63 17.2 49 9.4 60 60 NE 8 13 30.01 1016 10 16 0.00 0.00
11:56 pm 23:56 Clear 61 16.1 47 8.3 60 60 NNW 3 6 30.03 1017 10 16 0.00 0.00

Powered by AerisWeather